| time (UTC) | temp F | wind direction | speed MPH | gust MPH | rain 1hr in | rain 24hr in | rain mn in | humidity % | barometer mb |
| 20260510043234 | 55 | 180 | 2.0 | 3.0 | 0.04 | 0.84 | 0.00 | 82 | 1009.7 |
| 20260510042216 | 55 | 180 | 3.0 | 3.0 | 0.05 | 0.84 | 0.00 | 81 | 1009.9 |
| 20260510041315 | 55 | 156 | 2.0 | 3.0 | 0.05 | 0.84 | 0.00 | 81 | 1010.0 |
| 20260510040319 | 55 | 189 | 3.0 | 4.0 | 0.05 | 0.86 | 0.00 | 80 | 1010.1 |
| 20260510035326 | 55 | 157 | 0.0 | 2.0 | 0.04 | 0.85 | 0.85 | 81 | 1010.0 |
| 20260510034325 | 55 | 214 | 5.0 | 8.0 | 0.05 | 0.84 | 0.84 | 81 | 1010.4 |
| 20260510033326 | 55 | 194 | 2.0 | 3.0 | 0.04 | 0.82 | 0.82 | 81 | 1010.2 |
| 20260510032328 | 55 | 184 | 1.0 | 3.0 | 0.03 | 0.82 | 0.81 | 81 | 1010.0 |
| 20260510031426 | 55 | 177 | 3.0 | 4.0 | 0.03 | 0.82 | 0.81 | 80 | 1009.9 |
| 20260510025427 | 55 | 244 | 2.0 | 4.0 | 0.04 | 0.84 | 0.81 | 81 | 1009.8 |
| 20260510023425 | 55 | 215 | 3.0 | 4.0 | 0.02 | 0.83 | 0.78 | 82 | 1009.3 |
| 20260510023326 | 55 | 205 | 3.0 | 5.0 | 0.01 | 0.82 | 0.78 | 82 | 1009.2 |
| 20260510022425 | 55 | 180 | 3.0 | 4.0 | 0.01 | 0.83 | 0.78 | 82 | 1009.2 |
| 20260510020442 | 55 | 180 | 3.0 | 4.0 | 0.00 | 0.83 | 0.77 | 81 | 1009.1 |
| 20260510015427 | 55 | 180 | 2.0 | 2.0 | 0.00 | 0.83 | 0.77 | 81 | 1009.0 |
| 20260510014526 | 55 | 180 | 1.0 | 2.0 | 0.00 | 0.84 | 0.77 | 81 | 1009.0 |
| 20260510012527 | 55 | 157 | 1.0 | 3.0 | 0.00 | 0.85 | 0.77 | 80 | 1008.8 |
| 20260510011526 | 55 | 190 | 2.0 | 3.0 | 0.01 | 0.87 | 0.77 | 80 | 1008.8 |
| 20260510010526 | 55 | 180 | 2.0 | 4.0 | 0.03 | 0.87 | 0.77 | 80 | 1008.6 |
| 20260510005527 | 55 | 162 | 3.0 | 5.0 | 0.07 | 0.88 | 0.77 | 80 | 1008.6 |
| 20260510004625 | 55 | 181 | 1.0 | 3.0 | 0.16 | 0.89 | 0.77 | 80 | 1008.7 |
| 20260510002644 | 55 | 219 | 3.0 | 6.0 | 0.40 | 0.91 | 0.77 | 80 | 1008.5 |
| 20260510001725 | 55 | 269 | 1.0 | 3.0 | 0.39 | 0.91 | 0.76 | 80 | 1008.9 |
| 20260510000742 | 55 | 329 | 2.0 | 3.0 | 0.37 | 0.92 | 0.74 | 80 | 1009.1 |
| 20260509235825 | 55 | 297 | 5.0 | 8.0 | 0.34 | 0.91 | 0.71 | 79 | 1009.0 |
| 20260509234827 | 56 | 315 | 6.0 | 13.0 | 0.28 | 0.86 | 0.65 | 79 | 1008.5 |
| 20260509233826 | 60 | 312 | 6.0 | 12.0 | 0.11 | 0.69 | 0.47 | 70 | 1008.4 |
| 20260509232826 | 66 | 305 | 7.0 | 10.0 | 0.00 | 0.57 | 0.37 | 55 | 1007.6 |
| 20260509231828 | 67 | 212 | 4.0 | 10.0 | 0.00 | 0.57 | 0.37 | 53 | 1006.4 |
| 20260509230827 | 67 | 189 | 6.0 | 11.0 | 0.00 | 0.57 | 0.37 | 53 | 1006.2 |
| 20260509224828 | 67 | 191 | 7.0 | 14.0 | 0.00 | 0.57 | 0.37 | 51 | 1006.0 |
| 20260509223925 | 68 | 179 | 5.0 | 13.0 | 0.00 | 0.57 | 0.37 | 51 | 1005.8 |
| 20260509222925 | 68 | 190 | 6.0 | 13.0 | 0.00 | 0.59 | 0.37 | 51 | 1006.1 |
| 20260509221926 | 68 | 212 | 7.0 | 10.0 | 0.00 | 0.59 | 0.37 | 50 | 1006.0 |
| 20260509221025 | 68 | 180 | 4.0 | 6.0 | 0.00 | 0.59 | 0.37 | 49 | 1006.1 |
| 20260509220027 | 68 | 187 | 7.0 | 10.0 | 0.00 | 0.59 | 0.37 | 48 | 1006.1 |
| 20260509215927 | 68 | 198 | 5.0 | 10.0 | 0.00 | 0.59 | 0.37 | 48 | 1006.0 |
| 20260509215025 | 68 | 176 | 9.0 | 15.0 | 0.00 | 0.59 | 0.37 | 49 | 1006.1 |
| 20260509214043 | 68 | 179 | 5.0 | 7.0 | 0.00 | 0.59 | 0.37 | 50 | 1006.0 |
| 20260509213128 | 68 | 192 | 7.0 | 11.0 | 0.00 | 0.59 | 0.37 | 50 | 1006.1 |
| 20260509211126 | 69 | 191 | 5.0 | 14.0 | 0.00 | 0.59 | 0.37 | 49 | 1006.3 |
| 20260509210127 | 68 | 212 | 4.0 | 7.0 | 0.00 | 0.59 | 0.37 | 51 | 1006.4 |
| 20260509204225 | 67 | 181 | 6.0 | 12.0 | 0.00 | 0.62 | 0.37 | 52 | 1006.7 |
| 20260509201424 | 67 | 207 | 3.0 | 5.0 | 0.00 | 0.63 | 0.37 | 52 | 1006.9 |
| 20260509200427 | 67 | 178 | 9.0 | 15.0 | 0.00 | 0.63 | 0.37 | 54 | 1007.0 |
| 20260509193527 | 67 | 196 | 2.0 | 5.0 | 0.00 | 0.63 | 0.37 | 53 | 1007.4 |
| 20260509192525 | 67 | 182 | 10.0 | 14.0 | 0.00 | 0.63 | 0.37 | 52 | 1007.8 |
| 20260509191527 | 67 | 194 | 5.0 | 12.0 | 0.00 | 0.63 | 0.37 | 54 | 1008.0 |
| 20260509190528 | 66 | 183 | 5.0 | 10.0 | 0.00 | 0.63 | 0.37 | 54 | 1008.0 |
| 20260509184527 | 66 | 204 | 7.0 | 13.0 | 0.00 | 0.63 | 0.37 | 55 | 1008.0 |
| 20260509183526 | 65 | 191 | 6.0 | 9.0 | 0.00 | 0.63 | 0.37 | 56 | 1008.2 |
| 20260509182625 | 65 | 259 | 4.0 | 9.0 | 0.00 | 0.63 | 0.37 | 57 | 1008.2 |
| 20260509181625 | 64 | 177 | 7.0 | 12.0 | 0.00 | 0.63 | 0.37 | 59 | 1008.2 |
| 20260509175627 | 65 | 182 | 6.0 | 11.0 | 0.00 | 0.63 | 0.37 | 59 | 1008.2 |
| 20260509174626 | 63 | 239 | 4.0 | 6.0 | 0.00 | 0.64 | 0.37 | 61 | 1008.4 |
| 20260509172626 | 63 | 197 | 4.0 | 5.0 | 0.00 | 0.64 | 0.37 | 62 | 1008.3 |
| 20260509171627 | 62 | 201 | 5.0 | 11.0 | 0.00 | 0.64 | 0.37 | 63 | 1008.2 |
| 20260509165625 | 62 | 277 | 5.0 | 11.0 | 0.00 | 0.64 | 0.37 | 62 | 1008.6 |
| 20260509164725 | 62 | 172 | 4.0 | 7.0 | 0.00 | 0.64 | 0.37 | 65 | 1008.6 |
| 20260509163728 | 61 | 193 | 2.0 | 7.0 | 0.00 | 0.64 | 0.37 | 64 | 1008.7 |
| 20260509162726 | 61 | 209 | 4.0 | 10.0 | 0.01 | 0.64 | 0.37 | 67 | 1008.7 |
| 20260509161726 | 61 | 154 | 3.0 | 6.0 | 0.01 | 0.64 | 0.37 | 68 | 1008.8 |
| 20260509160725 | 61 | 187 | 4.0 | 7.0 | 0.01 | 0.64 | 0.37 | 69 | 1008.8 |
| 20260509154741 | 59 | 175 | 4.0 | 7.0 | 0.01 | 0.64 | 0.37 | 73 | 1008.8 |
| 20260509153825 | 59 | 205 | 6.0 | 10.0 | 0.01 | 0.64 | 0.37 | 75 | 1008.7 |
| 20260509152825 | 58 | 177 | 5.0 | 7.0 | 0.00 | 0.63 | 0.36 | 76 | 1008.7 |
| 20260509151925 | 57 | 252 | 3.0 | 6.0 | 0.00 | 0.63 | 0.36 | 77 | 1008.8 |
| 20260509145942 | 56 | 198 | 1.0 | 3.0 | 0.00 | 0.63 | 0.36 | 79 | 1008.7 |
| 20260509144924 | 56 | 159 | 4.0 | 5.0 | 0.00 | 0.63 | 0.36 | 80 | 1008.8 |
| 20260509143926 | 56 | 180 | 2.0 | 4.0 | 0.00 | 0.63 | 0.36 | 80 | 1008.8 |
| 20260509142025 | 55 | 157 | 2.0 | 3.0 | 0.00 | 0.63 | 0.36 | 81 | 1008.7 |
| 20260509140026 | 54 | 234 | 0.0 | 2.0 | 0.00 | 0.63 | 0.36 | 82 | 1008.6 |
| 20260509135024 | 54 | 245 | 2.0 | 4.0 | 0.00 | 0.63 | 0.36 | 82 | 1008.7 |
| 20260509134024 | 54 | 158 | 4.0 | 9.0 | 0.00 | 0.63 | 0.36 | 82 | 1008.6 |
| 20260509133042 | 54 | 195 | 1.0 | 2.0 | 0.00 | 0.63 | 0.36 | 82 | 1008.8 |
| 20260509132026 | 53 | 160 | 1.0 | 2.0 | 0.00 | 0.63 | 0.36 | 82 | 1008.7 |
| 20260509131125 | 53 | 182 | 2.0 | 4.0 | 0.00 | 0.64 | 0.36 | 82 | 1008.7 |
| 20260509125125 | 53 | 202 | 1.0 | 2.0 | 0.00 | 0.64 | 0.36 | 83 | 1009.0 |
| 20260509124124 | 53 | 248 | 1.0 | 4.0 | 0.00 | 0.64 | 0.36 | 81 | 1009.1 |
| 20260509124027 | 53 | 228 | 4.0 | 6.0 | 0.00 | 0.64 | 0.36 | 81 | 1009.1 |
| 20260509122125 | 53 | 189 | 2.0 | 5.0 | 0.00 | 0.64 | 0.36 | 83 | 1009.1 |
| 20260509121126 | 53 | 180 | 3.0 | 4.0 | 0.00 | 0.64 | 0.36 | 82 | 1009.1 |
| 20260509120125 | 53 | 233 | 1.0 | 4.0 | 0.00 | 0.64 | 0.36 | 82 | 1009.2 |
| 20260509115126 | 53 | 225 | 1.0 | 1.0 | 0.00 | 0.64 | 0.36 | 83 | 1009.2 |
| 20260509114140 | 52 | 180 | 2.0 | 3.0 | 0.00 | 0.64 | 0.36 | 82 | 1009.1 |
| 20260509113142 | 52 | 185 | 3.0 | 5.0 | 0.00 | 0.64 | 0.36 | 82 | 1009.1 |
| 20260509112224 | 52 | 157 | 2.0 | 3.0 | 0.00 | 0.64 | 0.36 | 83 | 1009.1 |
| 20260509111324 | 52 | 181 | 2.0 | 4.0 | 0.00 | 0.64 | 0.36 | 83 | 1008.9 |
| 20260509110325 | 52 | 170 | 2.0 | 5.0 | 0.00 | 0.64 | 0.36 | 83 | 1008.7 |
| 20260509104424 | 52 | 173 | 1.0 | 2.0 | 0.00 | 0.64 | 0.36 | 83 | 1008.7 |
| 20260509103424 | 52 | 185 | 2.0 | 3.0 | 0.00 | 0.64 | 0.36 | 83 | 1008.8 |
| 20260509102441 | 52 | 163 | 2.0 | 4.0 | 0.00 | 0.64 | 0.36 | 83 | 1008.6 |
| 20260509101526 | 52 | 160 | 1.0 | 2.0 | 0.00 | 0.64 | 0.36 | 83 | 1008.7 |
| 20260509100524 | 52 | 201 | 1.0 | 2.0 | 0.00 | 0.64 | 0.36 | 83 | 1008.8 |
| 20260509095525 | 52 | 150 | 2.0 | 3.0 | 0.00 | 0.64 | 0.36 | 83 | 1008.8 |
| 20260509093623 | 52 | 180 | 2.0 | 3.0 | 0.02 | 0.64 | 0.36 | 83 | 1009.0 |
| 20260509092624 | 52 | 166 | 2.0 | 4.0 | 0.02 | 0.64 | 0.36 | 83 | 1009.1 |
| 20260509091642 | 52 | 180 | 0.0 | 2.0 | 0.03 | 0.64 | 0.36 | 83 | 1009.1 |
| 20260509084625 | 52 | 180 | 2.0 | 3.0 | 0.07 | 0.63 | 0.35 | 83 | 1009.4 |
| 20260509083624 | 52 | 163 | 3.0 | 5.0 | 0.08 | 0.62 | 0.34 | 83 | 1009.5 |
| 20260509082641 | 52 | 168 | 3.0 | 4.0 | 0.11 | 0.62 | 0.34 | 83 | 1009.5 |
| 20260509081725 | 52 | 165 | 4.0 | 5.0 | 0.12 | 0.61 | 0.33 | 83 | 1009.6 |
| 20260509075823 | 52 | 180 | 2.0 | 3.0 | 0.12 | 0.59 | 0.30 | 83 | 1009.7 |
| 20260509074842 | 52 | 180 | 1.0 | 3.0 | 0.12 | 0.57 | 0.28 | 83 | 1009.6 |
| 20260509073826 | 52 | 172 | 4.0 | 6.0 | 0.11 | 0.55 | 0.26 | 82 | 1009.4 |
| 20260509072842 | 51 | 181 | 3.0 | 5.0 | 0.08 | 0.52 | 0.23 | 83 | 1009.6 |
| 20260509070927 | 51 | 218 | 2.0 | 3.0 | 0.07 | 0.49 | 0.20 | 83 | 1009.8 |
| 20260509070024 | 51 | 172 | 3.0 | 5.0 | 0.06 | 0.47 | 0.18 | 83 | 1009.8 |
| 20260509065925 | 51 | 181 | 2.0 | 3.0 | 0.06 | 0.47 | 0.18 | 82 | 1009.9 |
| 20260509064925 | 51 | 180 | 1.0 | 2.0 | 0.05 | 0.45 | 0.16 | 83 | 1009.9 |
| 20260509062925 | 51 | 187 | 2.0 | 3.0 | 0.07 | 0.44 | 0.15 | 82 | 1009.9 |
| 20260509060925 | 51 | 178 | 3.0 | 3.0 | 0.07 | 0.42 | 0.13 | 82 | 1010.3 |
| 20260509055926 | 51 | 202 | 1.0 | 2.0 | 0.08 | 0.41 | 0.12 | 82 | 1010.6 |
| 20260509055024 | 51 | 180 | 3.0 | 4.0 | 0.07 | 0.40 | 0.11 | 82 | 1010.5 |
| 20260509054123 | 51 | 157 | 2.0 | 3.0 | 0.07 | 0.39 | 0.10 | 82 | 1010.6 |
| 20260509053124 | 51 | 199 | 2.0 | 4.0 | 0.07 | 0.38 | 0.08 | 82 | 1010.7 |
| 20260509052224 | 51 | 186 | 3.0 | 4.0 | 0.05 | 0.36 | 0.07 | 82 | 1010.7 |
| 20260509051224 | 51 | 161 | 2.0 | 3.0 | 0.04 | 0.35 | 0.06 | 82 | 1010.8 |
| 20260509050227 | 51 | 180 | 3.0 | 4.0 | 0.04 | 0.33 | 0.04 | 82 | 1010.9 |
| 20260509045224 | 51 | 180 | 3.0 | 3.0 | 0.04 | 0.33 | 0.04 | 82 | 1010.9 |
| 20260509044323 | 51 | 168 | 2.0 | 4.0 | 0.03 | 0.32 | 0.03 | 82 | 1010.7 |